Location: *
(46.3500°N, 10.9000°E)
Time: 23:29:14
(UTC+00:00)

Cosmos 2366 rocket - Pass Details

Date: 09 April 2020
Orbit: 956 x 996 km, 82.9° (Epoch: 30 May)

Event Time Altitude Azimuth Distance (km) Brightness Sun altitude
Rises 19:36:12 0° 354° (N) 3,647 7.6 -16.7°
Reaches altitude 10° 19:38:45 10° 358° (N) 2,697 6.8 -17.1°
Maximum altitude 19:44:50 59° 78° (ENE) 1,098 4.0 -18.0°
Enters shadow 19:48:09 27° 148° (SSE) 1,740 4.8 -18.5°
